This is the latest recevied weather packets stored in our database for station/object W0WFX-2. If no packets are shown the sender has not sent any weather packets the latest 10 day(s).
| Time | Temp. | Humidity | Pressure | Rain* | Wind** | Luminosity | Snow |
|---|---|---|---|---|---|---|---|
| 1788206529 | 38.33° C | 31% | 1013.7 hPa | 0 mm | - | 117 W/m² | - |
| 1788206224 | 38.89° C | 31% | 1013.7 hPa | 0 mm | - | 119 W/m² | - |
| 1788205919 | 38.89° C | 31% | 1013.7 hPa | 0 mm | - | 124 W/m² | - |
| 1788205614 | 38.89° C | 32% | 1013.6 hPa | 0 mm | - | 703 W/m² | - |
| 1788205310 | 38.89° C | 33% | 1013.6 hPa | 0 mm | - | 709 W/m² | - |
| 1788205003 | 38.33° C | 32% | 1013.6 hPa | 0 mm | - | 730 W/m² | - |
| 1788204699 | 38.33° C | 33% | 1013.8 hPa | 0 mm | - | 749 W/m² | - |
| 1788204394 | 37.78° C | 33% | 1013.9 hPa | 0 mm | - | 759 W/m² | - |
| 1788204089 | 37.78° C | 33% | 1013.7 hPa | 0 mm | - | 750 W/m² | - |
| 1788203785 | 37.78° C | 34% | 1013.9 hPa | 0 mm | - | 644 W/m² | - |
| 1788203481 | 37.78° C | 34% | 1014 hPa | 0 mm | - | 745 W/m² | - |
| 1788203176 | 37.78° C | 35% | 1014.1 hPa | 0 mm | - | 649 W/m² | - |
| 1788202875 | 37.22° C | 34% | 1014 hPa | 0 mm | - | 671 W/m² | - |
| 1788202571 | 37.22° C | 34% | 1014 hPa | 0 mm | - | 660 W/m² | - |
| 1788202266 | 36.67° C | 34% | 1014.1 hPa | 0 mm | - | 572 W/m² | - |
| 1788201966 | 37.22° C | 36% | 1014.1 hPa | 0 mm | - | 496 W/m² | - |
| 1788201661 | 37.22° C | 35% | 1014.1 hPa | 0 mm | - | 543 W/m² | - |
| 1788201361 | 37.22° C | 35% | 1014.1 hPa | 0 mm | - | 590 W/m² | - |
| 1788201061 | 37.78° C | 32% | 1014.2 hPa | 0 mm | - | 636 W/m² | - |
| 1788200760 | 37.78° C | 34% | 1014.3 hPa | 0 mm | - | 824 W/m² | - |
| 1788200456 | 38.33° C | 33% | 1014.3 hPa | 0 mm | - | 808 W/m² | - |
| 1788200155 | 38.33° C | 34% | 1014.2 hPa | 0 mm | - | 810 W/m² | - |
| 1788199850 | 38.33° C | 34% | 1014.3 hPa | 0 mm | - | 820 W/m² | - |
| 1788199545 | 38.33° C | 34% | 1014.3 hPa | 0 mm | - | 768 W/m² | - |
| 1788199240 | 37.78° C | 34% | 1014.4 hPa | 0 mm | - | 801 W/m² | - |
* Rain latest hour (hover to see other rain measurements)
** Current wind speed in m/s (hover to see current wind gust speed)